When you browse on this site, cookies collect data to enhance your experience and personalize the content and advertising you see.
Visit our Privacy Policy to learn more. By continuing to use the site, you agree to this use of cookies and data.
  • In Switzerland
  • List of Countries
  • For 7 days
  • Water Temperature
  • Weather Map
  • Weather Widgets
  • user-avatar
    Login

    Hourly Weather Sidorovskie

    Today, 17 August, Saturday

    Time Temperature Precipitation Wind Pressure Humidity
    00:00 +13°C° 0 mm 1 mps 758 mmHg 80%
    01:00 +11°C° 0 mm 0 mps 758 mmHg 82%
    02:00 +12°C° 0 mm 1 mps 758 mmHg 82%
    03:00 +12°C° 0 mm 1 mps 758 mmHg 83%
    04:00 +12°C° 0 mm 1 mps 758 mmHg 84%
    05:00 +11°C° 0 mm 1 mps 758 mmHg 85%
    06:00 +13°C° 0 mm 1 mps 758 mmHg 79%
    07:00 +15°C° 0 mm 1 mps 758 mmHg 72%
    08:00 +18°C° 0 mm 1 mps 758 mmHg 66%
    09:00 +20°C° 0 mm 1 mps 758 mmHg 61%
    10:00 +21°C° 0 mm 1 mps 758 mmHg 55%
    11:00 +23°C° 0 mm 1 mps 758 mmHg 50%
    12:00 +23°C° 0 mm 1 mps 757 mmHg 48%
    13:00 +24°C° 0 mm 1 mps 757 mmHg 46%
    14:00 +24°C° 0 mm 1 mps 757 mmHg 44%
    15:00 +24°C° 0 mm 1 mps 757 mmHg 47%
    16:00 +24°C° 0 mm 1 mps 757 mmHg 49%
    17:00 +23°C° 0 mm 1 mps 756 mmHg 52%
    18:00 +21°C° 0 mm 1 mps 756 mmHg 58%
    19:00 +19°C° 0 mm 1 mps 756 mmHg 64%
    20:00 +16°C° 0 mm 1 mps 756 mmHg 71%
    21:00 +15°C° 0 mm 1 mps 756 mmHg 74%
    22:00 +14°C° 0 mm 1 mps 756 mmHg 78%
    23:00 +13°C° 0 mm 1 mps 756 mmHg 81%

    Tomorrow, 18 August, Sunday

    Time Temperature Precipitation Wind Pressure Humidity
    00:00 +13°C° 0 mm 1 mps 756 mmHg 83%
    01:00 +12°C° 0 mm 1 mps 756 mmHg 85%
    02:00 +11°C° 0 mm 0 mps 756 mmHg 87%
    03:00 +12°C° 0 mm 1 mps 756 mmHg 88%
    04:00 +11°C° 0 mm 1 mps 756 mmHg 89%
    05:00 +11°C° 0 mm 1 mps 755 mmHg 90%
    06:00 +13°C° 0 mm 1 mps 755 mmHg 82%
    07:00 +15°C° 0 mm 1 mps 755 mmHg 75%
    08:00 +18°C° 0 mm 1 mps 755 mmHg 68%
    09:00 +20°C° 0 mm 1 mps 755 mmHg 63%
    10:00 +22°C° 0 mm 1 mps 755 mmHg 57%
    11:00 +21°C° 0 mm 0 mps 755 mmHg 52%
    12:00 +24°C° 0 mm 1 mps 754 mmHg 50%
    13:00 +24°C° 0 mm 1 mps 754 mmHg 48%
    14:00 +24°C° 0 mm 1 mps 754 mmHg 46%
    15:00 +24°C° 0 mm 1 mps 754 mmHg 49%
    16:00 +24°C° 0 mm 1 mps 754 mmHg 52%
    17:00 +24°C° 0 mm 1 mps 754 mmHg 55%
    18:00 +22°C° 0 mm 1 mps 754 mmHg 62%
    19:00 +20°C° 0 mm 1 mps 754 mmHg 68%
    20:00 +17°C° 0 mm 2 mps 754 mmHg 74%
    21:00 +17°C° 0 mm 2 mps 754 mmHg 77%
    22:00 +16°C° 0 mm 2 mps 754 mmHg 79%
    23:00 +16°C° 0 mm 2 mps 754 mmHg 82%

    Day after tomorrow, 19 August, Monday

    Time Temperature Precipitation Wind Pressure Humidity
    00:00 +15°C° 0 mm 2 mps 754 mmHg 86%
    01:00 +15°C° 0 mm 2 mps 754 mmHg 90%
    02:00 +15°C° 0 mm 2 mps 754 mmHg 93%
    03:00 +14°C° 0 mm 3 mps 753 mmHg 93%
    04:00 +16°C° 0 mm 3 mps 753 mmHg 92%
    05:00 +16°C° 0 mm 3 mps 753 mmHg 91%
    06:00 +17°C° 0 mm 4 mps 753 mmHg 88%
    07:00 +18°C° 0 mm 4 mps 753 mmHg 84%
    08:00 +19°C° 0 mm 4 mps 753 mmHg 81%
    09:00 +20°C° 0 mm 4 mps 754 mmHg 80%
    10:00 +20°C° 0 mm 4 mps 754 mmHg 79%
    11:00 +21°C° 0 mm 4 mps 754 mmHg 77%
    12:00 +21°C° 0 mm 4 mps 754 mmHg 77%
    13:00 +22°C° 0 mm 4 mps 755 mmHg 77%
    14:00 +22°C° 0 mm 3 mps 755 mmHg 77%
    15:00 +24°C° 0.1 mm 3 mps 755 mmHg 78%
    16:00 +24°C° 0.1 mm 3 mps 755 mmHg 79%
    17:00 +24°C° 0.1 mm 3 mps 755 mmHg 80%
    18:00 +23°C° 0.3 mm 2 mps 756 mmHg 84%
    19:00 +21°C° 0.3 mm 2 mps 756 mmHg 89%
    20:00 +20°C° 0.3 mm 2 mps 756 mmHg 94%
    21:00 +19°C° 0 mm 2 mps 757 mmHg 94%
    22:00 +19°C° 0 mm 1 mps 757 mmHg 94%
    23:00 +18°C° 0 mm 1 mps 757 mmHg 94%

    20 August, Tuesday

    Time Temperature Precipitation Wind Pressure Humidity
    00:00 +18°C° 0 mm 1 mps 758 mmHg 94%
    01:00 +16°C° 0 mm 1 mps 758 mmHg 94%
    02:00 +16°C° 0 mm 1 mps 758 mmHg 93%
    03:00 +15°C° 0 mm 0 mps 758 mmHg 93%
    04:00 +15°C° 0 mm 0 mps 759 mmHg 93%
    05:00 +15°C° 0 mm 0 mps 759 mmHg 93%
    06:00 +18°C° 0 mm 1 mps 759 mmHg 91%
    07:00 +19°C° 0 mm 1 mps 759 mmHg 88%
    08:00 +20°C° 0 mm 1 mps 759 mmHg 86%
    09:00 +22°C° 0 mm 1 mps 759 mmHg 78%
    10:00 +23°C° 0 mm 1 mps 760 mmHg 71%
    11:00 +25°C° 0 mm 1 mps 760 mmHg 64%
    12:00 +25°C° 0 mm 1 mps 760 mmHg 60%
    13:00 +25°C° 0 mm 1 mps 760 mmHg 57%
    14:00 +26°C° 0 mm 1 mps 759 mmHg 53%
    15:00 +26°C° 0 mm 1 mps 759 mmHg 56%
    16:00 +25°C° 0 mm 1 mps 759 mmHg 59%
    17:00 +25°C° 0 mm 1 mps 759 mmHg 61%
    18:00 +23°C° 0 mm 1 mps 760 mmHg 66%
    19:00 +21°C° 0 mm 1 mps 760 mmHg 72%
    20:00 +19°C° 0 mm 1 mps 760 mmHg 77%
    21:00 +18°C° 0 mm 1 mps 760 mmHg 77%
    22:00 +16°C° 0 mm 1 mps 761 mmHg 77%
    23:00 +15°C° 0 mm 1 mps 761 mmHg 78%

    21 August, Wednesday

    Time Temperature Precipitation Wind Pressure Humidity
    00:00 +15°C° 0 mm 1 mps 761 mmHg 78%
    01:00 +15°C° 0 mm 1 mps 761 mmHg 79%
    02:00 +14°C° 0 mm 1 mps 761 mmHg 79%
    03:00 +14°C° 0 mm 1 mps 761 mmHg 81%
    04:00 +13°C° 0 mm 1 mps 761 mmHg 83%
    05:00 +13°C° 0 mm 1 mps 761 mmHg 85%
    06:00 +15°C° 0 mm 1 mps 761 mmHg 81%
    07:00 +16°C° 0 mm 1 mps 761 mmHg 77%
    08:00 +19°C° 0 mm 1 mps 761 mmHg 73%
    09:00 +19°C° 0 mm 2 mps 760 mmHg 74%
    10:00 +19°C° 0 mm 2 mps 760 mmHg 75%
    11:00 +20°C° 0 mm 2 mps 760 mmHg 76%
    12:00 +19°C° 0.9 mm 3 mps 759 mmHg 82%
    13:00 +18°C° 0.9 mm 4 mps 758 mmHg 87%
    14:00 +16°C° 0.9 mm 5 mps 758 mmHg 93%
    15:00 +15°C° 3.9 mm 5 mps 757 mmHg 94%
    16:00 +14°C° 3.9 mm 5 mps 757 mmHg 95%
    17:00 +14°C° 3.9 mm 6 mps 756 mmHg 96%
    18:00 +13°C° 1.7 mm 6 mps 756 mmHg 96%
    19:00 +13°C° 1.7 mm 6 mps 756 mmHg 96%
    20:00 +13°C° 1.7 mm 6 mps 756 mmHg 96%
    21:00 +13°C° 0.9 mm 5 mps 757 mmHg 96%
    22:00 +13°C° 0.9 mm 5 mps 757 mmHg 97%
    23:00 +13°C° 0.9 mm 4 mps 758 mmHg 97%

    22 August, Thursday

    Time Temperature Precipitation Wind Pressure Humidity
    00:00 +13°C° 0.1 mm 4 mps 758 mmHg 96%
    01:00 +13°C° 0.1 mm 4 mps 759 mmHg 96%
    02:00 +13°C° 0.1 mm 4 mps 759 mmHg 95%
    03:00 +12°C° 0 mm 3 mps 760 mmHg 96%
    04:00 +11°C° 0 mm 3 mps 760 mmHg 96%
    05:00 +10°C° 0 mm 2 mps 760 mmHg 97%
    06:00 +13°C° 0 mm 2 mps 760 mmHg 95%
    07:00 +13°C° 0 mm 3 mps 761 mmHg 93%
    08:00 +14°C° 0 mm 3 mps 761 mmHg 91%
    09:00 +17°C° 0 mm 3 mps 761 mmHg 81%
    10:00 +18°C° 0 mm 3 mps 761 mmHg 72%
    11:00 +20°C° 0 mm 4 mps 761 mmHg 62%
    12:00 +21°C° 0 mm 4 mps 762 mmHg 59%
    13:00 +21°C° 0 mm 4 mps 762 mmHg 56%
    14:00 +22°C° 0 mm 4 mps 762 mmHg 53%
    15:00 +21°C° 0 mm 4 mps 762 mmHg 56%
    16:00 +21°C° 0 mm 3 mps 762 mmHg 59%
    17:00 +20°C° 0 mm 3 mps 762 mmHg 63%
    18:00 +18°C° 0 mm 3 mps 762 mmHg 68%
    19:00 +16°C° 0 mm 2 mps 762 mmHg 74%
    20:00 +14°C° 0 mm 2 mps 762 mmHg 79%
    21:00 +14°C° 0 mm 2 mps 762 mmHg 82%
    22:00 +13°C° 0 mm 2 mps 763 mmHg 84%
    23:00 +12°C° 0 mm 2 mps 763 mmHg 86%
    Show more